period_start,C,m1,H,J0,J1,J2,J3,J4,J5,JA,JB,JC,JD,JJ,JK,JN,#
2016-12-11 00:03:50,0.30,5.40,0.00,18.33,22.87,26.80,14.94,51.33,1019.98,2043.00,1980.27,1973.68,2228.90,600.08,607.77,31.19,0000 0000 0000 0000 000000
2016-12-11 00:08:51,0.31,5.41,0.00,18.34,22.87,26.77,14.95,51.36,1019.68,2043.00,1977.34,1971.39,2226.31,600.16,607.56,31.24,0000 0000 0000 0000 000000
2016-12-11 00:13:53,0.32,5.43,0.00,18.33,22.87,26.77,14.87,51.53,1019.65,2043.00,1974.26,1969.07,2223.63,599.79,607.16,31.29,0000 0000 0000 0000 000000
2016-12-11 00:18:54,0.31,5.44,0.00,18.31,22.87,26.81,14.98,51.54,1019.85,2043.00,1971.24,1966.77,2220.96,599.90,607.47,31.34,0000 0000 0000 0000 000000
2016-12-11 00:23:55,0.31,5.46,0.00,18.33,22.86,26.73,14.93,51.30,1019.98,2043.00,1968.29,1964.44,2218.33,599.84,607.38,31.39,0000 0000 0000 0000 000000
2016-12-11 00:28:56,0.31,5.47,0.00,18.31,22.85,26.76,14.87,51.35,1020.02,2043.00,1965.36,1962.19,2215.81,599.89,607.64,31.44,0000 0000 0000 0000 000000
2016-12-11 00:33:58,0.31,5.49,0.00,18.29,22.85,26.70,14.90,51.54,1020.03,2043.00,1962.43,1959.96,2213.16,600.10,607.79,31.49,0000 0000 0000 0000 000000
2016-12-11 00:39:00,0.29,5.50,0.00,18.25,22.84,26.66,14.88,51.45,1020.04,2043.01,1959.60,1957.74,2210.61,599.93,607.73,31.54,0000 0000 0000 0000 000000
2016-12-11 00:44:01,0.30,5.52,0.00,18.21,22.84,26.67,14.93,51.55,1020.04,2043.00,1956.68,1955.49,2208.08,599.87,607.71,31.59,0000 0000 0000 0000 000000
2016-12-11 00:49:02,0.29,5.53,0.00,18.22,22.83,26.61,14.94,51.51,1020.02,2043.00,1953.88,1953.38,2205.60,600.10,607.94,31.64,0000 0000 0000 0000 000000
2016-12-11 00:54:03,0.29,5.55,0.00,18.22,22.82,26.52,14.92,51.51,1020.01,2043.01,1951.20,1951.32,2203.20,600.05,607.97,31.69,0000 0000 0000 0000 000000
2016-12-11 00:59:04,0.29,5.56,0.00,18.21,22.81,26.52,14.87,51.73,1019.69,2043.01,1948.47,1949.19,2200.86,599.74,607.51,31.74,0000 0000 0000 0000 000000
2016-12-11 01:04:06,0.29,5.58,0.00,18.21,22.79,26.50,14.93,51.63,1019.90,2043.03,1945.64,1947.08,2198.43,600.11,607.91,31.79,0000 0000 0000 0000 000000
2016-12-11 01:09:07,0.28,5.59,0.00,18.20,22.79,26.46,14.94,51.70,1019.76,2043.03,1943.06,1945.07,2196.08,599.98,607.71,31.84,0000 0000 0000 0000 000000
2016-12-11 01:14:08,0.29,5.61,0.00,18.17,22.77,26.48,14.95,51.70,1019.77,2043.07,1940.38,1943.06,2193.73,599.98,607.81,31.89,0000 0000 0000 0000 000000
2016-12-11 01:19:10,0.28,5.62,0.00,18.16,22.77,26.44,14.89,51.55,1019.71,2043.14,1937.70,1940.96,2191.40,599.91,607.55,31.94,0000 0000 0000 0000 000000
2016-12-11 01:24:11,0.29,5.64,0.00,18.17,22.75,26.44,14.94,51.68,1019.60,2043.16,1935.01,1938.92,2189.05,599.93,607.73,31.99,0000 0000 0000 0000 000000
2016-12-11 01:29:12,0.34,5.65,0.00,18.14,22.74,26.44,14.94,51.84,1019.56,2043.51,1932.30,1936.84,2186.65,600.07,607.72,32.05,0000 0000 0000 0000 000000
2016-12-11 01:34:13,0.27,5.67,0.00,18.11,22.73,26.42,14.90,51.72,1019.55,2043.69,1929.73,1934.82,2184.32,600.00,607.79,32.10,0000 0000 0000 0000 000000
2016-12-11 01:39:15,0.32,5.68,0.00,18.09,22.72,26.36,14.89,51.46,1019.55,2043.77,1926.97,1932.71,2181.92,600.07,607.92,32.15,0000 0000 0000 0000 000000
2016-12-11 01:44:16,0.29,5.70,0.00,18.11,22.70,26.34,14.88,51.61,1019.55,2043.84,1924.21,1930.57,2179.49,600.16,607.91,32.20,0000 0000 0000 0000 000000
2016-12-11 01:49:18,0.29,5.71,0.00,18.04,22.69,26.36,14.95,51.77,1019.55,2043.92,1921.62,1928.52,2177.17,600.03,608.02,32.25,0000 0000 0000 0000 000000
2016-12-11 01:54:19,0.29,5.73,0.00,18.02,22.68,26.37,14.84,51.66,1019.56,2043.97,1919.07,1926.51,2174.88,599.59,607.54,32.30,0000 0000 0000 0000 000000
2016-12-11 01:59:20,0.28,5.74,0.00,18.00,22.67,26.33,14.90,51.52,1019.57,2043.97,1916.41,1924.48,2172.59,599.83,608.02,32.35,0000 0000 0000 0000 000000
2016-12-11 02:04:21,0.29,5.76,0.00,17.98,22.65,26.32,14.93,51.61,1019.58,2043.97,1913.78,1922.45,2170.26,600.00,608.14,32.40,0000 0000 0000 0000 000000
2016-12-11 02:09:22,0.29,5.77,0.00,18.01,22.63,26.28,14.89,51.50,1019.58,2043.99,1911.08,1920.47,2167.96,600.12,608.19,32.45,0000 0000 0000 0000 000000
2016-12-11 02:14:24,0.27,5.79,0.00,18.00,22.62,26.30,14.92,51.58,1019.56,2043.99,1908.42,1918.46,2165.59,600.00,607.97,32.50,0000 0000 0000 0000 000000
2016-12-11 02:19:25,0.28,5.80,0.00,17.98,22.60,26.24,14.98,51.77,1019.56,2043.99,1905.82,1916.47,2163.28,600.04,608.00,32.55,0000 0000 0000 0000 000000
2016-12-11 02:24:26,0.27,5.81,0.00,17.96,22.59,26.20,14.92,51.78,1019.55,2043.99,1903.39,1914.61,2161.10,599.92,608.09,32.60,0000 0000 0000 0000 000000
2016-12-11 02:29:28,0.27,5.83,0.00,17.96,22.58,26.21,14.91,51.79,1019.57,2043.99,1900.93,1912.72,2158.97,600.04,608.17,32.65,0000 0000 0000 0000 000000
2016-12-11 02:34:29,0.27,5.84,0.00,17.94,22.57,26.21,14.93,51.88,1019.57,2043.99,1898.40,1910.81,2156.77,599.83,608.08,32.70,0000 0000 0000 0000 000000
2016-12-11 02:39:30,0.27,5.86,0.00,17.89,22.54,26.15,14.92,51.78,1019.57,2044.01,1895.89,1908.84,2154.50,600.07,608.33,32.75,0000 0000 0000 0000 000000
2016-12-11 02:44:31,0.28,5.87,0.00,17.87,22.53,26.15,14.97,51.81,1019.59,2044.01,1893.34,1906.92,2152.27,600.27,608.59,32.80,0000 0000 0000 0000 000000
2016-12-11 02:49:33,0.29,5.88,0.00,17.86,22.52,26.14,14.94,52.00,1019.65,2044.00,1890.67,1904.89,2149.96,599.94,608.32,32.85,0000 0000 0000 0000 000000
2016-12-11 02:54:34,0.27,5.90,0.00,17.85,22.50,26.11,14.96,52.00,1019.58,2044.01,1888.19,1902.99,2147.73,599.77,608.21,32.90,0000 0000 0000 0000 000000
2016-12-11 02:59:35,0.29,5.91,0.00,17.85,22.49,26.15,14.89,52.00,1019.56,2044.02,1885.43,1901.01,2145.48,599.79,608.10,32.96,0000 0000 0000 0000 000000
2016-12-11 03:04:37,0.29,5.93,0.00,17.83,22.47,26.08,14.94,51.87,1019.56,2044.05,1882.86,1898.99,2143.19,600.23,608.61,33.01,0000 0000 0000 0000 000000
2016-12-11 03:09:38,0.31,5.94,0.00,17.83,22.46,26.01,15.03,51.73,1019.59,2044.16,1880.21,1897.01,2140.88,600.17,608.59,33.06,0000 0000 0000 0000 000000
2016-12-11 03:14:40,0.32,5.96,0.00,17.84,22.44,26.02,14.98,51.75,1019.69,2044.40,1877.56,1895.03,2138.54,599.93,608.45,33.11,0000 0000 0000 0000 000000
2016-12-11 03:19:41,0.33,5.98,0.00,17.83,22.43,26.05,15.00,52.00,1019.96,2044.77,1874.93,1893.00,2136.26,600.32,609.00,33.16,0000 0000 0000 0000 000000
2016-12-11 03:24:42,0.29,5.99,0.00,17.79,22.42,26.03,14.95,52.17,1020.00,2044.80,1872.29,1890.92,2133.88,599.96,608.66,33.21,0000 0000 0000 0000 000000
2016-12-11 03:29:43,0.32,6.01,0.00,17.77,22.41,25.98,14.97,52.15,1019.99,2044.96,1869.58,1888.88,2131.55,599.89,608.62,33.26,0000 0000 0000 0000 000000
2016-12-11 03:34:45,0.30,6.02,0.00,17.74,22.39,26.03,14.98,52.20,1020.03,2044.96,1866.95,1886.82,2129.21,600.11,608.89,33.31,0000 0000 0000 0000 000000
2016-12-11 03:39:46,0.28,6.04,0.00,17.72,22.38,26.00,15.02,51.86,1020.03,2044.99,1864.40,1884.83,2126.95,600.08,609.02,33.36,0000 0000 0000 0000 000000
2016-12-11 03:44:48,0.29,6.05,0.00,17.69,22.37,26.01,14.96,51.94,1020.02,2044.99,1861.81,1882.85,2124.67,599.91,608.92,33.41,0000 0000 0000 0000 000000
2016-12-11 03:49:49,0.28,6.07,0.00,17.68,22.35,25.96,14.98,51.83,1020.03,2044.98,1859.19,1880.83,2122.37,599.86,608.79,33.46,0000 0000 0000 0000 000000
2016-12-11 03:54:50,0.29,6.08,0.00,17.70,22.33,25.93,14.99,51.88,1020.03,2044.99,1856.58,1878.92,2120.14,599.63,608.61,33.51,0000 0000 0000 0000 000000
2016-12-11 03:59:51,0.28,6.10,0.00,17.67,22.32,25.93,14.98,51.91,1020.03,2044.99,1854.14,1876.87,2117.82,600.11,609.03,33.56,0000 0000 0000 0000 000000
2016-12-11 04:04:52,0.27,6.11,0.00,17.68,22.30,25.88,14.95,52.01,1020.04,2044.99,1851.68,1875.02,2115.62,600.11,609.09,33.61,0000 0000 0000 0000 000000
2016-12-11 04:09:53,0.28,6.12,0.00,17.65,22.29,25.94,14.95,52.17,1020.04,2044.99,1849.18,1873.09,2113.40,600.00,609.09,33.66,0000 0000 0000 0000 000000
2016-12-11 04:14:55,0.29,6.14,0.00,17.63,22.28,25.89,14.95,52.27,1020.04,2045.00,1846.61,1871.12,2111.20,599.74,608.89,33.71,0000 0000 0000 0000 000000
2016-12-11 04:19:56,0.28,6.15,0.00,17.60,22.27,25.90,14.94,52.21,1020.08,2045.04,1844.14,1869.21,2109.17,599.94,609.18,33.76,0000 0000 0000 0000 000000
2016-12-11 04:24:57,0.29,6.17,0.00,17.58,22.25,25.85,14.98,52.20,1020.17,2045.02,1841.66,1867.30,2106.93,599.95,609.20,33.81,0000 0000 0000 0000 000000
2016-12-11 04:29:58,0.29,6.19,0.00,17.59,22.24,25.89,14.91,52.21,1020.42,2045.06,1839.00,1865.33,2104.63,599.71,609.27,33.86,0000 0000 0000 0000 000000
2016-12-11 04:35:00,0.26,6.20,0.00,17.59,22.22,25.88,15.00,52.13,1020.52,2045.04,1836.57,1863.42,2102.44,599.87,609.36,33.92,0000 0000 0000 0000 000000
2016-12-11 04:40:01,0.30,6.22,0.00,17.57,22.22,25.90,14.98,52.34,1020.52,2045.17,1834.23,1861.58,2100.32,599.91,609.49,33.97,0000 0000 0000 0000 000000
2016-12-11 04:45:02,0.31,6.23,0.00,17.54,22.19,25.82,14.96,52.37,1020.52,2045.41,1831.74,1859.72,2098.15,600.21,609.76,34.02,0000 0000 0000 0000 000000
2016-12-11 04:50:03,0.31,6.25,0.00,17.51,22.19,25.83,15.02,52.30,1020.53,2045.51,1829.20,1857.78,2095.93,600.23,609.85,34.07,0000 0000 0000 0000 000000
2016-12-11 04:55:04,0.30,6.26,0.00,17.52,22.17,25.81,15.04,52.07,1020.68,2045.79,1826.75,1855.86,2093.72,600.36,610.22,34.12,0000 0000 0000 0000 000000
2016-12-11 05:00:06,0.28,6.28,0.00,17.49,22.16,25.81,15.04,52.20,1020.78,2045.84,1824.27,1854.10,2091.53,600.15,609.97,34.17,0000 0000 0000 0000 000000
2016-12-11 05:05:07,0.29,6.29,0.00,17.48,22.14,25.79,14.99,52.11,1020.66,2045.92,1821.67,1852.25,2089.33,599.90,609.71,34.22,0000 0000 0000 0000 000000
2016-12-11 05:10:09,0.30,6.31,0.00,17.47,22.12,25.76,14.93,52.16,1020.88,2045.97,1819.20,1850.35,2087.16,599.97,609.90,34.27,0000 0000 0000 0000 000000
2016-12-11 05:15:10,0.27,6.32,0.00,17.43,22.12,25.73,14.94,52.07,1021.01,2045.98,1816.79,1848.50,2085.08,600.11,610.14,34.32,0000 0000 0000 0000 000000
2016-12-11 05:20:12,0.29,6.34,0.00,17.42,22.09,25.74,14.96,52.35,1020.98,2045.98,1814.32,1846.64,2082.90,600.23,610.33,34.37,0000 0000 0000 0000 000000
2016-12-11 05:25:13,0.29,6.35,0.00,17.41,22.08,25.70,14.93,52.15,1021.01,2045.99,1811.87,1844.74,2080.68,599.80,609.98,34.42,0000 0000 0000 0000 000000
2016-12-11 05:30:14,0.27,6.36,0.00,17.38,22.07,25.70,15.01,52.12,1021.01,2045.99,1809.46,1842.89,2078.58,599.67,609.65,34.47,0000 0000 0000 0000 000000
2016-12-11 05:35:15,0.28,6.38,0.00,17.37,22.05,25.71,14.96,52.37,1020.98,2045.99,1807.00,1841.06,2076.48,599.81,610.05,34.52,0000 0000 0000 0000 000000
2016-12-11 05:40:16,0.26,6.39,0.00,17.37,22.04,25.68,14.99,52.27,1020.99,2045.99,1804.64,1839.26,2074.36,600.22,610.41,34.57,0000 0000 0000 0000 000000
2016-12-11 05:45:18,0.28,6.41,0.00,17.38,22.02,25.64,14.96,52.41,1020.99,2045.99,1802.28,1837.43,2072.30,600.22,610.45,34.62,0000 0000 0000 0000 000000
2016-12-11 05:50:19,0.29,6.42,0.00,17.35,22.00,25.60,14.99,52.56,1021.01,2046.00,1799.93,1835.55,2070.15,600.07,610.35,34.67,0000 0000 0000 0000 000000
2016-12-11 05:55:20,0.26,6.43,0.00,17.30,21.99,25.61,15.02,52.47,1021.03,2046.02,1797.66,1833.81,2068.19,599.97,610.39,34.72,0000 0000 0000 0000 000000
2016-12-11 06:00:21,0.26,6.45,0.00,17.31,21.97,25.62,15.02,52.58,1021.08,2046.04,1795.34,1832.10,2066.13,600.15,610.46,34.78,0000 0000 0000 0000 000000
2016-12-11 06:05:23,0.27,6.46,0.00,17.29,21.96,25.55,14.98,52.38,1021.41,2046.09,1793.11,1830.38,2064.12,599.84,610.48,34.83,0000 0000 0000 0000 000000
2016-12-11 06:10:24,0.30,6.48,0.00,17.28,21.94,25.61,14.95,52.28,1021.48,2046.29,1790.99,1828.66,2062.17,599.65,610.21,34.88,0000 0000 0000 0000 000000
2016-12-11 06:15:25,0.29,6.49,0.00,17.28,21.92,25.58,15.07,52.44,1021.50,2046.48,1788.68,1826.90,2060.17,599.96,610.63,34.93,0000 0000 0000 0000 000000
2016-12-11 06:20:26,0.27,6.51,0.00,17.28,21.91,25.55,15.02,52.27,1021.50,2046.79,1786.39,1825.20,2058.16,600.00,610.69,34.98,0000 0000 0000 0000 000000
2016-12-11 06:25:28,0.31,6.52,0.00,17.29,21.89,25.54,15.02,52.44,1021.50,2046.91,1784.08,1823.33,2056.05,600.06,610.74,35.03,0000 0000 0000 0000 000000
2016-12-11 06:30:29,0.29,6.54,0.00,17.27,21.88,25.53,15.04,52.52,1021.50,2046.92,1781.67,1821.52,2053.96,599.77,610.51,35.08,0000 0000 0000 0000 000000
2016-12-11 06:35:31,0.27,6.55,0.00,17.26,21.87,25.52,14.94,52.11,1021.54,2046.97,1779.43,1819.75,2051.97,599.68,610.50,35.13,0000 0000 0000 0000 000000
2016-12-11 06:40:32,0.27,6.57,0.00,17.27,21.86,25.51,15.01,52.25,1021.67,2046.97,1777.12,1818.03,2049.96,600.13,610.95,35.18,0000 0000 0000 0000 000000
2016-12-11 06:45:33,0.27,6.58,0.00,17.25,21.84,25.53,15.03,52.42,1021.50,2046.98,1774.79,1816.25,2047.86,600.15,610.83,35.23,0000 0000 0000 0000 000000
2016-12-11 06:50:35,0.26,6.59,0.00,17.26,21.84,25.50,15.00,52.63,1021.22,2046.98,1772.44,1814.48,2046.12,599.86,610.49,35.28,0000 0000 0000 0000 000000
2016-12-11 06:55:36,0.27,6.61,0.00,17.22,21.82,25.49,14.98,52.58,1021.05,2046.99,1770.21,1812.73,2044.21,599.75,610.35,35.33,0000 0000 0000 0000 000000
2016-12-11 07:00:37,0.28,6.62,0.00,17.21,21.82,25.51,14.97,52.51,1021.33,2046.99,1767.94,1810.96,2042.17,599.75,610.48,35.38,0000 0000 0000 0000 000000
2016-12-11 07:05:39,0.27,6.63,0.00,17.21,21.80,25.46,14.99,52.39,1021.50,2046.99,1765.57,1809.21,2040.13,599.85,610.77,35.43,0000 0000 0000 0000 000000
2016-12-11 07:10:40,0.27,6.65,0.00,17.21,21.79,25.47,15.03,52.42,1021.51,2046.99,1763.26,1807.48,2038.14,600.11,611.13,35.48,0000 0000 0000 0000 000000
2016-12-11 07:15:41,0.28,6.66,0.00,17.20,21.78,25.42,15.03,52.33,1021.54,2046.99,1761.05,1805.71,2036.12,599.99,610.82,35.53,0000 0000 0000 0000 000000
2016-12-11 07:20:43,0.27,6.68,0.00,17.21,21.77,25.44,14.94,52.33,1021.58,2046.99,1758.70,1803.94,2034.08,600.04,610.89,35.58,0000 0000 0000 0000 000000
2016-12-11 07:25:44,0.27,6.69,0.00,17.23,21.77,25.44,14.97,52.36,1021.75,2046.99,1756.34,1802.17,2032.10,599.81,610.75,35.63,0000 0000 0000 0000 000000
2016-12-11 07:30:46,0.28,6.70,0.00,17.20,21.76,25.44,15.00,52.32,1021.74,2046.99,1754.08,1800.44,2030.05,599.58,610.55,35.68,0000 0000 0000 0000 000000
2016-12-11 07:35:47,0.28,6.72,0.00,17.24,21.74,25.45,14.96,52.51,1021.50,2046.99,1751.73,1798.68,2028.03,600.02,610.84,35.74,0000 0000 0000 0000 000000
2016-12-11 07:40:48,0.28,6.73,0.00,17.23,21.74,25.48,14.99,52.78,1021.50,2046.99,1749.43,1796.88,2025.96,600.06,610.80,35.79,0000 0000 0000 0000 000000
2016-12-11 07:45:49,0.28,6.75,0.00,17.18,21.73,25.45,15.03,52.72,1021.55,2046.99,1747.06,1795.08,2023.97,600.09,611.11,35.84,0000 0000 0000 0000 000000
2016-12-11 07:50:50,0.27,6.77,0.00,17.18,21.72,25.46,15.09,52.57,1021.94,2046.99,1744.81,1793.38,2021.97,600.42,611.60,35.89,0000 0000 0000 0000 000000
2016-12-11 07:55:52,0.28,6.78,0.00,17.18,21.72,25.49,14.99,52.98,1021.98,2046.99,1742.47,1791.67,2019.95,600.07,611.28,35.94,0000 0000 0000 0000 000000
2016-12-11 08:00:53,0.28,6.79,0.00,17.17,21.72,25.51,15.05,52.99,1021.99,2046.99,1740.18,1789.92,2017.91,599.75,611.23,35.99,0000 0000 0000 0000 000000
2016-12-11 08:05:54,0.26,6.81,0.00,17.14,21.71,25.50,15.04,53.11,1021.99,2047.00,1737.97,1788.26,2015.94,599.83,611.14,36.04,0000 0000 0000 0000 000000
2016-12-11 08:10:55,0.29,6.82,0.00,17.12,21.70,25.47,14.96,52.86,1021.98,2047.00,1735.67,1786.48,2013.84,599.60,610.91,36.09,0000 0000 0000 0000 000000
2016-12-11 08:15:57,0.28,6.84,0.00,17.10,21.69,25.49,15.10,53.10,1021.99,2047.01,1733.44,1784.74,2011.86,600.29,611.72,36.14,0000 0000 0000 0000 000000
2016-12-11 08:20:58,0.26,6.85,0.00,17.07,21.69,25.47,15.09,53.11,1021.99,2047.02,1731.38,1783.12,2009.96,600.09,611.54,36.19,0000 0000 0000 0000 000000
2016-12-11 08:25:59,0.27,6.86,0.00,17.08,21.69,25.50,15.05,53.38,1021.90,2047.01,1729.18,1781.43,2008.07,599.89,611.33,36.24,0000 0000 0000 0000 000000
2016-12-11 08:31:01,0.28,6.88,0.00,17.10,21.67,25.48,15.01,53.35,1021.95,2047.02,1727.08,1779.65,2006.04,599.96,611.21,36.29,0000 0000 0000 0000 000000
2016-12-11 08:36:02,0.28,6.89,0.00,17.06,21.67,25.45,15.07,53.45,1021.96,2047.05,1724.95,1777.91,2004.08,599.96,611.35,36.34,0000 0000 0000 0000 000000
2016-12-11 08:41:03,0.27,6.91,0.00,17.04,21.67,25.48,15.09,53.61,1021.94,2047.05,1722.68,1776.20,2002.07,600.12,611.46,36.39,0000 0000 0000 0000 000000
2016-12-11 08:46:04,0.28,6.92,0.00,17.03,21.65,25.37,15.07,53.48,1021.92,2047.04,1720.35,1774.39,2000.06,599.64,611.20,36.44,0000 0000 0000 0000 000000
2016-12-11 08:51:06,0.30,6.93,0.00,17.01,21.64,25.35,15.07,53.20,1021.81,2047.17,1718.19,1772.67,1998.07,600.23,611.67,36.49,0000 0000 0000 0000 000000
2016-12-11 08:56:07,0.29,6.95,0.00,16.99,21.63,25.33,15.09,52.98,1021.97,2047.46,1716.04,1771.07,1996.20,599.98,611.57,36.54,0000 0000 0000 0000 000000
2016-12-11 09:01:08,0.29,6.97,0.00,16.98,21.62,25.35,15.03,53.11,1021.88,2047.57,1713.77,1769.43,1994.27,600.04,611.64,36.59,0000 0000 0000 0000 000000
2016-12-11 09:06:09,0.30,6.98,0.00,16.94,21.61,25.26,15.02,53.21,1021.77,2047.69,1711.55,1767.65,1992.27,599.85,611.33,36.65,0000 0000 0000 0000 000000
2016-12-11 09:11:11,0.32,7.00,0.00,16.91,21.59,25.31,15.07,53.37,1021.55,2047.85,1709.23,1765.87,1990.23,599.93,611.39,36.70,0000 0000 0000 0000 000000
2016-12-11 09:16:12,0.27,7.01,0.00,16.90,21.58,25.26,15.02,53.35,1021.83,2047.94,1707.10,1764.19,1988.29,599.83,611.51,36.75,0000 0000 0000 0000 000000
2016-12-11 09:21:13,0.32,7.03,0.00,16.86,21.57,25.20,15.06,53.40,1021.64,2047.96,1704.71,1762.27,1986.06,599.90,611.53,36.80,0000 0000 0000 0000 000000
2016-12-11 09:26:14,0.29,7.04,0.00,16.83,21.55,25.19,15.11,52.93,1021.98,2047.99,1702.31,1760.49,1984.07,600.13,611.99,36.85,0000 0000 0000 0000 000000
2016-12-11 09:31:16,0.26,7.06,0.00,16.82,21.54,25.15,15.08,53.17,1022.29,2047.99,1700.15,1758.82,1982.36,600.03,612.16,36.90,0000 0000 0000 0000 000000
2016-12-11 09:36:17,0.25,7.07,0.00,16.85,21.52,25.20,15.02,53.02,1022.48,2047.99,1698.19,1757.21,1980.54,599.81,612.00,36.95,0000 0000 0000 0000 000000
2016-12-11 09:41:18,0.28,7.08,0.00,16.86,21.51,25.16,15.09,53.08,1022.42,2048.00,1696.13,1755.60,1978.68,600.13,612.25,37.00,0000 0000 0000 0000 000000
2016-12-11 09:46:20,0.27,7.10,0.00,16.85,21.49,25.13,15.03,53.18,1022.43,2048.00,1693.91,1753.95,1976.82,599.98,612.08,37.05,0000 0000 0000 0000 000000
2016-12-11 09:51:21,0.25,7.11,0.00,16.84,21.48,25.15,14.96,52.86,1022.48,2048.00,1691.86,1752.46,1975.04,599.69,611.86,37.10,0000 0000 0000 0000 000000
2016-12-11 09:56:22,0.26,7.12,0.00,16.84,21.47,25.13,15.04,53.02,1022.48,2048.01,1689.76,1750.84,1973.22,599.88,612.15,37.15,0000 0000 0000 0000 000000
2016-12-11 10:01:24,0.25,7.14,0.00,16.86,21.46,25.15,15.02,53.17,1022.47,2048.04,1687.75,1749.33,1971.47,599.97,612.14,37.20,0000 0000 0000 0000 000000
2016-12-11 10:06:25,0.28,7.15,0.00,16.88,21.45,25.13,15.02,53.38,1022.47,2048.08,1685.74,1747.78,1969.72,599.78,611.81,37.25,0000 0000 0000 0000 000000
2016-12-11 10:11:26,0.25,7.16,0.00,16.88,21.44,25.19,15.08,53.41,1022.48,2048.05,1683.72,1746.21,1967.86,599.91,612.06,37.30,0000 0000 0000 0000 000000
2016-12-11 10:16:27,0.28,7.18,0.00,16.88,21.44,25.19,15.11,53.20,1022.48,2048.09,1681.63,1744.57,1965.96,600.17,612.28,37.35,0000 0000 0000 0000 000000
2016-12-11 10:21:29,0.24,7.19,0.00,16.87,21.42,25.20,15.13,53.53,1022.31,2048.06,1679.64,1742.96,1964.18,600.06,612.18,37.40,0000 0000 0000 0000 000000
2016-12-11 10:26:30,0.28,7.20,0.00,16.88,21.42,25.21,14.96,53.23,1022.32,2048.10,1677.53,1741.37,1962.36,599.68,611.71,37.45,0000 0000 0000 0000 000000
2016-12-11 10:31:32,0.33,7.22,0.00,16.87,21.42,25.23,14.98,53.51,1022.29,2048.38,1675.40,1739.70,1960.49,599.88,611.95,37.50,0000 0000 0000 0000 000000
2016-12-11 10:36:33,0.32,7.24,0.00,16.85,21.42,25.23,15.04,53.84,1022.10,2048.82,1673.30,1738.07,1958.56,600.04,611.94,37.56,0000 0000 0000 0000 000000
2016-12-11 10:41:34,0.27,7.25,0.00,16.85,21.40,25.21,15.06,53.25,1022.45,2048.80,1671.23,1736.36,1956.60,600.13,612.28,37.61,0000 0000 0000 0000 000000
2016-12-11 10:46:35,0.29,7.26,0.00,16.85,21.39,25.20,15.07,53.05,1022.48,2048.91,1669.20,1734.77,1954.79,599.97,612.18,37.66,0000 0000 0000 0000 000000
2016-12-11 10:51:37,0.26,7.28,0.00,16.84,21.39,25.19,14.99,53.33,1022.48,2048.94,1667.14,1733.16,1952.90,599.99,612.23,37.71,0000 0000 0000 0000 000000
2016-12-11 10:56:38,0.29,7.29,0.00,16.82,21.39,25.18,15.03,53.34,1022.46,2048.96,1665.04,1731.54,1951.06,599.73,611.91,37.76,0000 0000 0000 0000 000000
2016-12-11 11:01:39,0.29,7.31,0.00,16.81,21.38,25.17,15.14,53.66,1022.21,2048.96,1662.80,1729.80,1949.05,599.89,612.01,37.81,0000 0000 0000 0000 000000
2016-12-11 11:06:40,0.26,7.32,0.00,16.80,21.37,25.19,15.07,53.78,1022.13,2048.98,1660.73,1728.26,1947.21,600.15,612.22,37.86,0000 0000 0000 0000 000000
2016-12-11 11:11:41,0.27,7.34,0.00,16.82,21.37,25.17,15.15,53.73,1022.12,2048.98,1658.68,1726.75,1945.38,600.08,612.15,37.91,0000 0000 0000 0000 000000
2016-12-11 11:16:43,0.27,7.35,0.00,16.78,21.36,25.18,15.03,53.86,1022.06,2048.99,1656.58,1725.19,1943.55,599.91,611.98,37.96,0000 0000 0000 0000 000000
2016-12-11 11:21:44,0.28,7.36,0.00,16.75,21.34,25.09,15.13,54.09,1022.24,2048.98,1654.53,1723.54,1941.64,600.14,612.51,38.01,0000 0000 0000 0000 000000
2016-12-11 11:26:45,0.28,7.38,0.00,16.73,21.34,25.12,15.14,54.11,1022.13,2048.99,1652.48,1721.86,1939.78,600.26,612.56,38.06,0000 0000 0000 0000 000000
2016-12-11 11:31:46,0.27,7.39,0.00,16.74,21.34,25.13,15.07,53.96,1022.09,2048.99,1650.43,1720.29,1937.97,599.83,612.04,38.11,0000 0000 0000 0000 000000
2016-12-11 11:36:47,0.27,7.41,0.00,16.74,21.33,25.10,15.07,53.81,1022.39,2048.99,1648.47,1718.68,1936.15,599.82,612.17,38.16,0000 0000 0000 0000 000000
2016-12-11 11:41:49,0.27,7.42,0.00,16.74,21.32,25.06,15.10,53.94,1022.42,2048.99,1646.48,1717.09,1934.35,599.96,612.34,38.21,0000 0000 0000 0000 000000
2016-12-11 11:46:50,0.29,7.44,0.00,16.73,21.32,25.06,15.08,54.13,1022.32,2048.99,1644.34,1715.40,1932.38,599.92,612.20,38.26,0000 0000 0000 0000 000000
2016-12-11 11:51:51,0.28,7.45,0.00,16.70,21.30,25.03,15.10,53.71,1022.44,2048.99,1642.36,1713.70,1930.53,599.86,612.33,38.31,0000 0000 0000 0000 000000
2016-12-11 11:56:53,0.25,7.46,0.00,16.69,21.29,25.05,15.08,53.80,1022.39,2048.99,1640.38,1712.24,1928.77,600.20,612.73,38.36,0000 0000 0000 0000 000000
2016-12-11 12:01:54,0.28,7.47,0.00,16.66,21.28,25.05,15.11,53.94,1022.38,2048.99,1638.34,1710.65,1927.00,600.13,612.73,38.41,0000 0000 0000 0000 000000
2016-12-11 12:06:55,0.27,7.49,0.00,16.66,21.27,25.02,15.14,53.99,1022.48,2048.99,1636.29,1708.99,1925.15,600.03,612.62,38.47,0000 0000 0000 0000 000000
2016-12-11 12:11:57,0.26,7.50,0.00,16.67,21.27,24.98,15.13,53.98,1022.53,2049.01,1634.34,1707.50,1923.40,599.78,612.38,38.52,0000 0000 0000 0000 000000
2016-12-11 12:16:58,0.26,7.52,0.00,16.67,21.25,24.98,15.08,53.87,1022.80,2049.02,1632.36,1705.95,1921.55,600.09,612.94,38.57,0000 0000 0000 0000 000000
2016-12-11 12:22:00,0.26,7.53,0.00,16.67,21.24,24.96,15.08,53.80,1022.77,2049.04,1630.38,1704.50,1919.91,599.92,612.61,38.62,0000 0000 0000 0000 000000
2016-12-11 12:27:01,0.26,7.55,0.00,16.66,21.23,24.97,15.00,53.78,1022.82,2049.02,1628.45,1702.90,1918.25,599.92,612.80,38.67,0000 0000 0000 0000 000000
2016-12-11 12:32:02,0.26,7.56,0.00,16.67,21.22,25.00,15.09,53.92,1022.63,2049.05,1626.50,1701.49,1916.57,599.73,612.37,38.72,0000 0000 0000 0000 000000
2016-12-11 12:37:03,0.27,7.57,0.00,16.68,21.22,24.99,15.09,53.94,1022.58,2049.07,1624.55,1699.91,1914.81,600.24,612.83,38.77,0000 0000 0000 0000 000000
2016-12-11 12:42:05,0.28,7.59,0.00,16.67,21.20,24.98,15.09,53.73,1022.72,2049.16,1622.61,1698.46,1913.07,600.17,612.95,38.82,0000 0000 0000 0000 000000
2016-12-11 12:47:05,0.28,7.60,0.00,16.67,21.19,24.99,15.08,53.92,1022.64,2049.26,1620.66,1696.85,1911.32,599.84,612.50,38.87,0000 0000 0000 0000 000000
2016-12-11 12:52:07,0.25,7.61,0.00,16.64,21.19,25.00,15.10,53.88,1022.59,2049.24,1618.72,1695.34,1909.53,600.06,612.70,38.92,0000 0000 0000 0000 000000
2016-12-11 12:57:08,0.30,7.63,0.00,16.63,21.18,24.97,15.06,53.93,1022.53,2049.35,1616.77,1693.76,1907.77,600.00,612.65,38.97,0000 0000 0000 0000 000000